Flag for Australia Weather past 2 weeks in Perth, Western Australia, Australia

Now
64 °F

Sprinkles. Broken clouds.


Feels Like: 64 °F
Forecast: 49 / 59 °F
Wind: 10 mph from West

Location: Belmont Perth Airport

Current Time: Jul 7, 2015 at 3:45:55 PM

Latest Report: Jul 7, 2015 at 3:00 PM


Visibility: N/A

Pressure: 30.04 "Hg

Humidity: 88%

Dew point: 61 °F

Location of PerthLocation

Historic Weather in Perth — Graph

°F

Perth temperature yesterday

Maximum temperature yesterday: 68 °F (at 12:30 PM)
Minimum temperature yesterday: 48 °F (at 6:30 AM)
Average temperature yesterday: 57 °F

Past Weeks' High & Low Weather Summary

 TemperatureHumidityPressure
High73 °F (Jun 29, 1:30 PM)100% (Jun 22, 10:00 PM)30.45 "Hg (Jun 22, 10:00 PM)
Low36 °F (Jun 23, 5:00 AM)25% (Jun 30, 2:00 PM)30.04 "Hg (Jul 7, 2:00 PM)
Average57 °F76%30.25 "Hg
* Reported Jun 22 2:00 PM — Jul 7 2:30 PM, Perth, Weather by CustomWeather, © 2015

Note: Actual official high and low records may vary slightly from our data, if they occured in-between our weather recording intervals... More about our weather records

Advertising

Perth weather history for previous 24 hours

 ConditionsComfort  
Time TempWeatherWind HumidityBarometerVisibility
2:30 PM
Tue, Jul 7
64 °FScattered showers. Partly sunny.9 mph83%30.04 "HgN/A
2:00 PM64 °FSprinkles. Partly sunny.13 mph88%30.04 "Hg3 mi
1:30 PM63 °FScattered showers. Partly sunny.9 mph88%30.07 "HgN/A
1:00 PM63 °FScattered showers. Broken clouds.7 mph94%30.07 "HgN/A
12:30 PM61 °FSprinkles. Broken clouds.8 mph94%30.07 "Hg3 mi
12:00 PM61 °FSprinkles. Mostly cloudy.8 mph94%30.09 "Hg1 mi
11:30 AM61 °FSprinkles. Partly sunny.7 mph94%30.09 "Hg4 mi
11:00 AM63 °FSprinkles. Mostly cloudy.8 mph83%30.09 "Hg4 mi
10:30 AM61 °FScattered showers. Broken clouds.12 mph88%30.12 "HgN/A
10:00 AM59 °FScattered showers. More clouds than sun.9 mph88%30.12 "HgN/A
9:49 AM59 °FSprinkles. More clouds than sun.9 mph88%30.12 "Hg5 mi
9:00 AM57 °FScattered showers. Partly sunny.12 mph94%30.09 "HgN/A
8:30 AM57 °FScattered showers. Partly sunny.10 mph94%30.09 "HgN/A
8:00 AM57 °FOvercast.7 mph94%30.09 "HgN/A
7:30 AM57 °FSprinkles. Partly sunny.7 mph94%30.09 "Hg4 mi
7:00 AM55 °FSprinkles. Overcast.8 mph100%30.09 "HgN/A
6:30 AM55 °FLight rain. Overcast.5 mph100%30.09 "Hg3 mi
6:00 AM55 °FDrizzle. Overcast.5 mph100%30.09 "Hg5 mi
5:30 AM55 °FPassing clouds.5 mph100%30.09 "HgN/A
5:00 AM55 °FPassing clouds.6 mph100%30.09 "HgN/A
4:30 AM55 °FFog.8 mph100%30.09 "Hg4 mi
4:00 AM57 °FFog.6 mph94%30.09 "Hg2 mi
3:30 AM57 °FFog.7 mph94%30.09 "Hg1 mi
3:00 AM57 °FSnow. Fog.6 mph94%30.12 "Hg2 mi
2:30 AM55 °FDense fog.6 mph94%30.12 "Hg0 mi
2:00 AM55 °FFog.5 mph100%30.12 "Hg0 mi
1:00 AM57 °FSnow. Fog.5 mph100%30.12 "Hg2 mi
12:00 AM59 °FFog.5 mph94%30.12 "Hg5 mi
11:30 PM
Mon, Jul 6
59 °FSnow. Fog.6 mph94%30.12 "Hg5 mi
11:00 PM59 °FFog.7 mph100%30.12 "Hg3 mi
10:30 PM59 °FFog.6 mph100%30.12 "Hg2 mi
10:00 PM59 °FFog.6 mph100%30.12 "Hg5 mi
9:30 PM59 °FFog.5 mph100%30.15 "Hg4 mi
9:00 PM59 °FFog.6 mph100%30.15 "Hg4 mi
8:30 PM59 °FPassing clouds.5 mph100%30.15 "HgN/A
8:00 PM61 °FPassing clouds.5 mph94%30.15 "HgN/A
7:30 PM61 °FPassing clouds.5 mph94%30.15 "HgN/A
7:00 PM61 °FPassing clouds.5 mph100%30.12 "HgN/A
6:30 PM61 °FScattered showers. Passing clouds.7 mph100%30.12 "HgN/A
6:00 PM61 °FScattered showers. Partly cloudy.5 mph100%30.12 "HgN/A
5:30 PM61 °FSprinkles. Partly cloudy.3 mph100%30.12 "Hg4 mi
5:00 PM63 °FSprinkles. Passing clouds.5 mph94%30.12 "Hg2 mi
4:30 PM63 °FSprinkles. Passing clouds.5 mph94%30.12 "Hg5 mi
4:00 PM63 °FSprinkles. Mostly cloudy.7 mph94%30.12 "Hg2 mi
3:30 PM63 °FSprinkles. More clouds than sun.9 mph94%30.12 "Hg2 mi
3:00 PM63 °FRain showers. More clouds than sun.8 mph94%30.12 "Hg1 mi
Weather by CustomWeather, © 2015

See weather overviewHow to use our weather pages